QPF
0.02 0.04 0.03 0.03 0.02 0.01 0.02 0.03 0.03 0.04 0.03 0.02 0.02 0.03 0.02 0.02 0.02 0.03 0.03 0.02 0.02 0.03 0.04 0.05 0.05 0.07 0.06 0.05 0.03 0.03 0.02 0.01 0.01 0.01 0.01 0.01 0.02 0.03 0.03 0.02 0.01 0.01 0.01
0.02 0.03 0.03 0.03 0.02 0.01 0.01 0.02 0.03 0.05 0.04 0.03 0.02 0.02 0.01 0.01 0.01 0.02 0.03 0.03 0.03 0.04 0.04 0.06 0.06 0.07 0.06 0.05 0.05 0.03 0.03 0.02 0.02 0.02 0.01 0.01 0.02 0.03 0.03 0.03 0.02 0.02 0.02
0.03 0.03 0.03 0.03 0.04 0.03 0.03 0.03 0.03 0.04 0.05 0.04 0.04 0.02 0.02 0.02 0.02 0.02 0.02 0.03 0.05 0.04 0.04 0.05 0.05 0.05 0.07 0.07 0.07 0.06 0.05 0.04 0.04 0.03 0.02 0.02 0.01 0.02 0.02 0.02 0.02 0.03 0.02
0.03 0.03 0.02 0.03 0.04 0.04 0.04 0.06 0.05 0.06 0.07 0.06 0.06 0.04 0.04 0.05 0.04 0.04 0.04 0.04 0.06 0.05 0.05 0.04 0.05 0.05 0.06 0.08 0.11 0.10 0.08 0.07 0.05 0.04 0.03 0.03 0.02 0.02 0.02 0.02 0.02 0.02 0.02
0.04 0.04 0.03 0.04 0.04 0.05 0.05 0.04 0.05 0.06 0.08 0.08 0.05 0.05 0.04 0.04 0.05 0.03 0.04 0.04 0.06 0.06 0.05 0.04 0.04 0.04 0.04 0.07 0.12 0.12 0.09 0.08 0.07 0.05 0.04 0.04 0.03 0.02 0.02 0.02 0.02 0.02 0.02
0.04 0.06 0.05 0.04 0.05 0.07 0.07 0.07 0.07 0.08 0.09 0.09 0.04 0.06 0.05 0.03 0.03 0.03 0.04 0.04 0.04 0.03 0.03 0.04 0.08 0.06 0.03 0.05 0.09 0.11 0.10 0.08 0.08 0.07 0.06 0.05 0.05 0.04 0.03 0.02 0.02 0.02 0.01
0.05 0.07 0.06 0.07 0.07 0.07 0.08 0.08 0.06 0.07 0.07 0.07 0.08 0.08 0.05 0.03 0.03 0.03 0.03 0.04 0.03 0.02 0.03 0.07 0.09 0.08 0.06 0.03 0.04 0.06 0.10 0.09 0.09 0.08 0.07 0.06 0.05 0.04 0.03 0.02 0.02 0.02 0.02
0.08 0.07 0.08 0.09 0.08 0.08 0.08 0.09 0.08 0.07 0.07 0.08 0.09 0.09 0.06 0.06 0.05 0.01 0.02 0.04 0.03 0.04 0.04 0.04 0.06 0.10 0.10 0.08 0.06 0.04 0.07 0.09 0.09 0.09 0.09 0.08 0.07 0.06 0.05 0.03 0.03 0.03 0.03
0.11 0.09 0.09 0.10 0.09 0.07 0.08 0.09 0.08 0.09 0.09 0.09 0.08 0.08 0.06 0.07 0.07 0.03 0.02 0.02 0.03 0.07 0.07 0.05 0.04 0.08 0.09 0.12 0.13 0.07 0.04 0.05 0.08 0.12 0.12 0.11 0.10 0.08 0.06 0.05 0.05 0.05 0.05
0.13 0.12 0.10 0.11 0.10 0.08 0.09 0.08 0.07 0.09 0.10 0.08 0.07 0.06 0.05 0.05 0.06 0.07 0.05 0.02 0.04 0.06 0.07 0.06 0.06 0.08 0.06 0.10 0.11 0.06 0.05 0.03 0.03 0.07 0.12 0.13 0.10 0.08 0.07 0.08 0.10 0.10 0.09
0.13 0.13 0.11 0.12 0.12 0.10 0.10 0.09 0.10 0.10 0.09 0.09 0.07 0.06 0.06 0.06 0.05 0.07 0.08 0.05 0.04 0.03 0.04 0.05 0.07 0.08 0.06 0.08 0.11 0.05 0.03 0.01 0.02 0.03 0.06 0.09 0.09 0.08 0.08 0.09 0.11 0.11 0.11
0.11 0.10 0.11 0.11 0.11 0.10 0.11 0.11 0.12 0.11 0.11 0.10 0.08 0.05 0.07 0.07 0.06 0.07 0.07 0.06 0.07 0.04 0.03 0.04 0.05 0.06 0.06 0.06 0.04 0.03 0.02 0.02 0.02 0.03 0.04 0.05 0.07 0.07 0.08 0.08 0.09 0.09 0.10
0.10 0.09 0.09 0.11 0.10 0.11 0.10 0.10 0.11 0.11 0.11 0.11 0.10 0.06 0.05 0.05 0.04 0.05 0.06 0.06 0.07 0.05 0.04 0.03 0.03 0.04 0.04 0.06 0.08 0.04 0.03 0.03 0.03 0.03 0.03 0.04 0.04 0.04 0.05 0.05 0.06 0.07 0.07
0.08 0.09 0.10 0.09 0.08 0.09 0.08 0.10 0.08 0.08 0.09 0.11 0.08 0.09 0.09 0.06 0.04 0.05 0.06 0.08 0.07 0.07 0.07 0.05 0.04 0.04 0.07 0.07 0.08 0.06 0.06 0.05 0.04 0.04 0.04 0.04 0.04 0.04 0.04 0.03 0.03 0.04 0.04
0.08 0.06 0.07 0.08 0.08 0.09 0.10 0.12 0.11 0.09 0.10 0.10 0.08 0.09 0.08 0.08 0.08 0.06 0.05 0.06 0.08 0.09 0.08 0.05 0.06 0.07 0.09 0.09 0.09 0.10 0.09 0.08 0.05 0.05 0.05 0.04 0.04 0.04 0.04 0.03 0.03 0.04 0.04
0.06 0.07 0.06 0.07 0.07 0.06 0.06 0.07 0.07 0.07 0.07 0.08 0.09 0.10 0.08 0.08 0.08 0.07 0.06 0.06 0.08 0.10 0.10 0.07 0.09 0.08 0.07 0.07 0.08 0.10 0.08 0.07 0.06 0.05 0.05 0.05 0.05 0.05 0.04 0.04 0.04 0.05 0.06
0.06 0.07 0.07 0.08 0.07 0.07 0.06 0.06 0.06 0.07 0.07 0.07 0.08 0.07 0.07 0.07 0.07 0.07 0.06 0.07 0.08 0.10 0.12 0.10 0.09 0.07 0.07 0.06 0.07 0.07 0.06 0.07 0.07 0.06 0.05 0.05 0.04 0.04 0.04 0.04 0.04 0.05 0.05
0.05 0.05 0.05 0.06 0.06 0.06 0.07 0.06 0.06 0.06 0.06 0.06 0.06 0.06 0.06 0.06 0.08 0.08 0.08 0.08 0.09 0.11 0.12 0.13 0.14 0.12 0.10 0.08 0.08 0.08 0.08 0.07 0.05 0.05 0.04 0.04 0.04 0.04 0.04 0.04 0.04 0.05 0.05
0.03 0.03 0.03 0.04 0.06 0.07 0.08 0.06 0.06 0.06 0.07 0.06 0.06 0.07 0.08 0.08 0.09 0.10 0.11 0.11 0.11 0.10 0.12 0.12 0.14 0.13 0.11 0.09 0.09 0.09 0.09 0.07 0.06 0.06 0.06 0.05 0.04 0.04 0.04 0.05 0.07 0.09 0.10
0.03 0.04 0.05 0.04 0.05 0.07 0.08 0.08 0.07 0.08 0.09 0.08 0.08 0.07 0.08 0.07 0.07 0.08 0.08 0.09 0.09 0.09 0.11 0.12 0.13 0.12 0.11 0.09 0.09 0.08 0.08 0.07 0.06 0.05 0.05 0.04 0.04 0.04 0.05 0.06 0.07 0.08 0.08
0.05 0.06 0.06 0.05 0.05 0.06 0.07 0.08 0.08 0.09 0.09 0.10 0.09 0.08 0.08 0.07 0.07 0.07 0.05 0.06 0.06 0.08 0.09 0.10 0.10 0.09 0.08 0.06 0.05 0.06 0.06 0.05 0.04 0.04 0.04 0.04 0.04 0.05 0.05 0.05 0.05 0.04 0.04
0.06 0.06 0.05 0.05 0.06 0.08 0.10 0.11 0.10 0.09 0.09 0.09 0.09 0.07 0.06 0.06 0.07 0.06 0.06 0.06 0.07 0.08 0.08 0.08 0.07 0.06 0.06 0.07 0.06 0.05 0.05 0.05 0.04 0.04 0.05 0.06 0.05 0.05 0.05 0.05 0.05 0.04 0.03
0.03 0.04 0.04 0.05 0.07 0.10 0.12 0.11 0.12 0.12 0.12 0.10 0.09 0.07 0.07 0.07 0.07 0.06 0.08 0.10 0.12 0.13 0.13 0.11 0.10 0.09 0.09 0.09 0.10 0.09 0.08 0.07 0.06 0.05 0.05 0.05 0.04 0.03 0.03 0.03 0.03 0.03 0.02
0.04 0.04 0.04 0.04 0.04 0.07 0.09 0.09 0.09 0.09 0.10 0.10 0.09 0.08 0.08 0.08 0.08 0.07 0.08 0.10 0.12 0.14 0.14 0.13 0.12 0.11 0.11 0.11 0.10 0.09 0.07 0.07 0.07 0.07 0.05 0.06 0.05 0.04 0.03 0.03 0.02 0.02 0.01
0.04 0.05 0.06 0.05 0.03 0.03 0.04 0.05 0.05 0.05 0.05 0.06 0.07 0.07 0.07 0.08 0.08 0.07 0.07 0.09 0.10 0.11 0.11 0.11 0.10 0.10 0.09 0.07 0.06 0.05 0.05 0.05 0.04 0.04 0.04 0.04 0.04 0.04 0.03 0.02 0.02 0.02 0.02
0.04 0.04 0.04 0.04 0.04 0.05 0.04 0.04 0.04 0.05 0.06 0.05 0.05 0.05 0.06 0.07 0.09 0.09 0.09 0.10 0.10 0.10 0.09 0.08 0.07 0.06 0.05 0.05 0.05 0.04 0.04 0.04 0.04 0.04 0.04 0.03 0.03 0.03 0.02 0.02 0.01 0.01 0.01
MSLP
1018.40 1018.55 1018.67 1018.76 1018.85 1018.96 1019.08 1019.23 1019.39 1019.52 1019.62 1019.68 1019.70 1019.72 1019.75 1019.85 1020.03 1020.32 1020.69 1021.13 1021.59 1022.02 1022.40 1022.70 1022.92 1023.07 1023.19 1023.30 1023.42 1023.56 1023.73 1023.90 1024.07 1024.23 1024.36 1024.48 1024.58 1024.68 1024.79 1024.91 1025.04 1025.16 1025.27
1018.61 1018.76 1018.86 1018.93 1018.99 1019.06 1019.15 1019.27 1019.41 1019.54 1019.65 1019.72 1019.77 1019.81 1019.86 1019.96 1020.12 1020.37 1020.70 1021.09 1021.51 1021.92 1022.31 1022.63 1022.90 1023.10 1023.28 1023.42 1023.57 1023.72 1023.87 1024.02 1024.16 1024.29 1024.40 1024.51 1024.62 1024.73 1024.86 1025.00 1025.13 1025.27 1025.38
1018.81 1018.95 1019.04 1019.09 1019.13 1019.19 1019.26 1019.36 1019.49 1019.62 1019.74 1019.84 1019.91 1019.96 1020.01 1020.09 1020.22 1020.42 1020.69 1021.02 1021.39 1021.77 1022.14 1022.49 1022.79 1023.05 1023.28 1023.48 1023.65 1023.81 1023.96 1024.08 1024.19 1024.29 1024.38 1024.48 1024.58 1024.70 1024.84 1024.99 1025.15 1025.29 1025.42
1018.97 1019.10 1019.18 1019.23 1019.26 1019.31 1019.38 1019.48 1019.61 1019.75 1019.88 1020.00 1020.08 1020.14 1020.19 1020.25 1020.34 1020.47 1020.67 1020.92 1021.23 1021.56 1021.91 1022.26 1022.60 1022.90 1023.18 1023.43 1023.64 1023.82 1023.96 1024.08 1024.17 1024.24 1024.31 1024.38 1024.48 1024.60 1024.74 1024.91 1025.07 1025.23 1025.36
1019.07 1019.17 1019.24 1019.30 1019.35 1019.40 1019.49 1019.60 1019.74 1019.89 1020.04 1020.16 1020.26 1020.32 1020.36 1020.40 1020.44 1020.51 1020.63 1020.80 1021.02 1021.29 1021.61 1021.94 1022.29 1022.63 1022.95 1023.24 1023.50 1023.71 1023.87 1023.98 1024.06 1024.12 1024.17 1024.24 1024.32 1024.44 1024.58 1024.75 1024.92 1025.08 1025.22
1019.06 1019.15 1019.22 1019.29 1019.36 1019.44 1019.55 1019.68 1019.84 1020.00 1020.16 1020.30 1020.40 1020.47 1020.49 1020.50 1020.49 1020.50 1020.54 1020.63 1020.77 1020.96 1021.22 1021.52 1021.85 1022.20 1022.56 1022.89 1023.19 1023.44 1023.64 1023.78 1023.87 1023.94 1023.99 1024.05 1024.13 1024.24 1024.38 1024.54 1024.71 1024.88 1025.02
1018.97 1019.04 1019.11 1019.19 1019.28 1019.40 1019.54 1019.70 1019.88 1020.06 1020.22 1020.36 1020.47 1020.53 1020.54 1020.52 1020.48 1020.43 1020.40 1020.40 1020.45 1020.57 1020.75 1020.99 1021.29 1021.64 1022.00 1022.37 1022.72 1023.02 1023.26 1023.45 1023.58 1023.68 1023.75 1023.82 1023.91 1024.02 1024.16 1024.31 1024.48 1024.64 1024.79
1018.80 1018.85 1018.92 1019.02 1019.15 1019.30 1019.47 1019.66 1019.85 1020.04 1020.21 1020.35 1020.44 1020.50 1020.50 1020.46 1020.39 1020.30 1020.21 1020.13 1020.10 1020.13 1020.22 1020.40 1020.65 1020.96 1021.32 1021.71 1022.09 1022.44 1022.75 1023.00 1023.19 1023.34 1023.45 1023.55 1023.66 1023.78 1023.92 1024.08 1024.25 1024.41 1024.56
1018.59 1018.62 1018.70 1018.82 1018.98 1019.16 1019.37 1019.58 1019.78 1019.96 1020.12 1020.25 1020.34 1020.38 1020.37 1020.32 1020.23 1020.11 1019.98 1019.85 1019.75 1019.69 1019.70 1019.79 1019.97 1020.24 1020.58 1020.96 1021.37 1021.76 1022.13 1022.45 1022.71 1022.92 1023.09 1023.24 1023.38 1023.53 1023.68 1023.86 1024.04 1024.21 1024.38
1018.37 1018.40 1018.48 1018.62 1018.81 1019.02 1019.24 1019.46 1019.66 1019.84 1019.98 1020.08 1020.15 1020.18 1020.18 1020.13 1020.04 1019.91 1019.76 1019.60 1019.45 1019.32 1019.26 1019.27 1019.37 1019.57 1019.86 1020.22 1020.63 1021.05 1021.46 1021.84 1022.16 1022.44 1022.68 1022.88 1023.07 1023.26 1023.45 1023.65 1023.86 1024.06 1024.27
1018.16 1018.20 1018.29 1018.45 1018.65 1018.88 1019.12 1019.33 1019.52 1019.68 1019.79 1019.87 1019.92 1019.95 1019.94 1019.91 1019.84 1019.74 1019.60 1019.43 1019.25 1019.09 1018.96 1018.90 1018.93 1019.06 1019.28 1019.60 1019.98 1020.39 1020.82 1021.23 1021.61 1021.95 1022.24 1022.51 1022.75 1022.99 1023.22 1023.47 1023.72 1023.98 1024.23
1017.98 1018.02 1018.12 1018.29 1018.51 1018.74 1018.98 1019.18 1019.35 1019.48 1019.56 1019.62 1019.65 1019.68 1019.69 1019.68 1019.66 1019.60 1019.50 1019.37 1019.20 1019.03 1018.87 1018.75 1018.71 1018.76 1018.92 1019.16 1019.49 1019.88 1020.30 1020.72 1021.12 1021.50 1021.84 1022.15 1022.45 1022.74 1023.03 1023.33 1023.65 1023.96 1024.28
1017.79 1017.84 1017.96 1018.13 1018.35 1018.58 1018.80 1018.99 1019.13 1019.22 1019.28 1019.31 1019.34 1019.37 1019.42 1019.46 1019.50 1019.51 1019.48 1019.41 1019.28 1019.13 1018.97 1018.83 1018.74 1018.72 1018.81 1018.98 1019.25 1019.58 1019.96 1020.37 1020.77 1021.16 1021.54 1021.89 1022.24 1022.58 1022.92 1023.29 1023.66 1024.04 1024.43
1017.57 1017.63 1017.76 1017.93 1018.14 1018.36 1018.57 1018.73 1018.84 1018.91 1018.94 1018.96 1018.98 1019.04 1019.12 1019.22 1019.34 1019.44 1019.50 1019.51 1019.46 1019.36 1019.22 1019.08 1018.97 1018.92 1018.94 1019.05 1019.26 1019.53 1019.87 1020.24 1020.63 1021.03 1021.41 1021.79 1022.17 1022.56 1022.96 1023.37 1023.80 1024.23 1024.67
1017.29 1017.37 1017.49 1017.67 1017.87 1018.08 1018.25 1018.39 1018.48 1018.52 1018.53 1018.54 1018.57 1018.65 1018.78 1018.95 1019.14 1019.33 1019.49 1019.59 1019.63 1019.60 1019.52 1019.42 1019.32 1019.25 1019.25 1019.32 1019.48 1019.72 1020.02 1020.37 1020.74 1021.13 1021.52 1021.92 1022.33 1022.74 1023.17 1023.62 1024.08 1024.55 1025.02
1016.95 1017.03 1017.16 1017.34 1017.53 1017.72 1017.87 1017.99 1018.05 1018.07 1018.07 1018.07 1018.12 1018.22 1018.38 1018.60 1018.87 1019.14 1019.39 1019.58 1019.71 1019.77 1019.76 1019.71 1019.65 1019.61 1019.62 1019.70 1019.86 1020.09 1020.38 1020.72 1021.10 1021.50 1021.90 1022.32 1022.74 1023.17 1023.61 1024.07 1024.54 1025.01 1025.48
1016.56 1016.66 1016.80 1016.96 1017.15 1017.32 1017.46 1017.55 1017.60 1017.60 1017.59 1017.59 1017.64 1017.75 1017.94 1018.19 1018.50 1018.83 1019.14 1019.41 1019.62 1019.75 1019.82 1019.84 1019.85 1019.88 1019.94 1020.07 1020.27 1020.54 1020.87 1021.25 1021.66 1022.09 1022.53 1022.96 1023.40 1023.84 1024.28 1024.73 1025.17 1025.61 1026.04
1016.17 1016.29 1016.44 1016.62 1016.80 1016.96 1017.09 1017.16 1017.19 1017.17 1017.15 1017.14 1017.18 1017.29 1017.48 1017.74 1018.06 1018.41 1018.75 1019.06 1019.32 1019.51 1019.65 1019.75 1019.84 1019.95 1020.11 1020.33 1020.62 1020.98 1021.40 1021.86 1022.34 1022.84 1023.32 1023.80 1024.25 1024.69 1025.12 1025.53 1025.93 1026.31 1026.67
1015.84 1015.99 1016.16 1016.36 1016.54 1016.70 1016.82 1016.88 1016.88 1016.85 1016.81 1016.78 1016.80 1016.89 1017.06 1017.30 1017.60 1017.93 1018.26 1018.57 1018.84 1019.07 1019.26 1019.43 1019.61 1019.82 1020.09 1020.43 1020.84 1021.33 1021.87 1022.45 1023.04 1023.63 1024.19 1024.71 1025.19 1025.64 1026.04 1026.41 1026.74 1027.05 1027.32
1015.64 1015.82 1016.03 1016.24 1016.44 1016.60 1016.71 1016.75 1016.74 1016.69 1016.62 1016.57 1016.56 1016.61 1016.74 1016.93 1017.18 1017.47 1017.76 1018.04 1018.30 1018.53 1018.75 1018.97 1019.22 1019.53 1019.91 1020.38 1020.94 1021.56 1022.25 1022.96 1023.67 1024.36 1025.00 1025.58 1026.10 1026.54 1026.93 1027.25 1027.52 1027.75 1027.94
1015.59 1015.81 1016.05 1016.29 1016.51 1016.67 1016.78 1016.81 1016.78 1016.71 1016.62 1016.54 1016.49 1016.51 1016.58 1016.72 1016.92 1017.14 1017.37 1017.60 1017.82 1018.04 1018.26 1018.51 1018.82 1019.20 1019.68 1020.26 1020.94 1021.70 1022.51 1023.35 1024.17 1024.95 1025.67 1026.31 1026.85 1027.31 1027.67 1027.95 1028.17 1028.33 1028.44
1015.69 1015.95 1016.23 1016.49 1016.72 1016.90 1017.00 1017.03 1016.99 1016.90 1016.79 1016.69 1016.62 1016.60 1016.64 1016.73 1016.87 1017.04 1017.21 1017.39 1017.56 1017.75 1017.96 1018.21 1018.55 1018.98 1019.52 1020.18 1020.94 1021.79 1022.69 1023.61 1024.51 1025.36 1026.13 1026.81 1027.37 1027.82 1028.17 1028.43 1028.60 1028.71 1028.77
1015.89 1016.18 1016.49 1016.78 1017.03 1017.22 1017.32 1017.35 1017.30 1017.21 1017.10 1017.00 1016.92 1016.89 1016.92 1016.99 1017.10 1017.23 1017.36 1017.50 1017.64 1017.79 1017.97 1018.22 1018.55 1018.99 1019.56 1020.24 1021.03 1021.91 1022.84 1023.79 1024.72 1025.59 1026.37 1027.04 1027.61 1028.05 1028.39 1028.62 1028.77 1028.85 1028.87
1016.12 1016.44 1016.78 1017.09 1017.35 1017.55 1017.66 1017.70 1017.67 1017.59 1017.50 1017.42 1017.37 1017.37 1017.41 1017.50 1017.61 1017.73 1017.85 1017.97 1018.09 1018.22 1018.38 1018.60 1018.92 1019.33 1019.87 1020.53 1021.29 1022.14 1023.03 1023.94 1024.82 1025.65 1026.39 1027.03 1027.56 1027.98 1028.30 1028.51 1028.65 1028.72 1028.74
1016.31 1016.65 1017.00 1017.33 1017.61 1017.83 1017.96 1018.02 1018.02 1017.98 1017.94 1017.91 1017.92 1017.97 1018.07 1018.20 1018.34 1018.49 1018.63 1018.76 1018.88 1019.00 1019.15 1019.34 1019.62 1019.99 1020.47 1021.06 1021.74 1022.49 1023.29 1024.09 1024.88 1025.60 1026.26 1026.82 1027.29 1027.67 1027.95 1028.15 1028.28 1028.36 1028.38
1016.43 1016.77 1017.13 1017.48 1017.77 1018.01 1018.17 1018.27 1018.33 1018.35 1018.38 1018.43 1018.52 1018.65 1018.82 1019.02 1019.22 1019.42 1019.60 1019.75 1019.88 1020.00 1020.14 1020.32 1020.55 1020.86 1021.27 1021.76 1022.33 1022.95 1023.61 1024.27 1024.91 1025.50 1026.03 1026.49 1026.88 1027.19 1027.43 1027.62 1027.75 1027.83 1027.86
Thickness
5748 5747 5746 5745 5747 5746 5745 5743 5744 5742 5742 5742 5742 5741 5741 5740 5741 5740 5735 5730 5728 5727 5725 5724 5722 5720 5719 5718 5716 5715 5714 5713 5711 5710 5709 5708 5706 5705 5704 5703 5701 5700 5699
5747 5746 5745 5744 5745 5745 5745 5744 5743 5742 5742 5742 5741 5741 5741 5740 5738 5738 5737 5732 5728 5727 5725 5723 5722 5720 5718 5717 5716 5714 5713 5711 5710 5709 5708 5707 5705 5704 5702 5701 5700 5698 5697
5745 5745 5746 5744 5744 5743 5742 5742 5742 5742 5742 5742 5741 5741 5741 5740 5739 5737 5737 5736 5732 5728 5725 5724 5722 5720 5719 5717 5716 5714 5712 5711 5709 5708 5707 5706 5704 5703 5701 5700 5698 5697 5696
5744 5743 5745 5746 5743 5743 5742 5742 5743 5742 5742 5742 5741 5742 5741 5739 5738 5737 5737 5736 5735 5733 5728 5725 5723 5721 5719 5718 5716 5714 5713 5711 5709 5707 5706 5705 5703 5702 5701 5699 5698 5696 5695
5744 5744 5745 5745 5743 5743 5743 5744 5744 5743 5742 5741 5742 5741 5741 5741 5739 5738 5738 5736 5734 5733 5732 5727 5724 5722 5720 5719 5717 5715 5713 5711 5709 5707 5706 5704 5703 5702 5700 5699 5697 5696 5695
5744 5744 5744 5743 5743 5743 5742 5742 5740 5740 5740 5740 5742 5742 5742 5742 5741 5740 5739 5738 5736 5734 5734 5732 5727 5724 5722 5720 5718 5716 5714 5712 5710 5708 5706 5705 5703 5702 5700 5698 5697 5696 5694
5744 5742 5744 5743 5742 5742 5741 5742 5741 5739 5739 5740 5738 5737 5740 5742 5742 5740 5740 5739 5738 5736 5734 5731 5729 5728 5725 5721 5718 5716 5714 5712 5710 5708 5706 5705 5703 5701 5699 5698 5696 5695 5693
5744 5744 5742 5742 5742 5741 5740 5740 5738 5738 5739 5739 5737 5733 5732 5735 5738 5743 5741 5738 5738 5737 5734 5732 5730 5727 5725 5724 5721 5717 5714 5712 5710 5708 5706 5705 5703 5701 5699 5697 5695 5694 5692
5743 5743 5743 5742 5742 5742 5740 5739 5739 5737 5736 5738 5739 5735 5730 5728 5734 5739 5739 5739 5737 5735 5734 5732 5730 5727 5724 5722 5719 5716 5714 5711 5709 5707 5705 5704 5702 5700 5698 5696 5694 5693 5691
5743 5743 5742 5742 5741 5742 5740 5740 5741 5739 5735 5735 5736 5737 5737 5736 5731 5730 5734 5737 5735 5732 5732 5731 5729 5726 5723 5720 5717 5715 5712 5710 5708 5706 5704 5702 5700 5698 5696 5694 5692 5690 5689
5743 5743 5743 5742 5741 5741 5741 5740 5739 5738 5737 5735 5736 5736 5735 5734 5733 5729 5725 5728 5730 5731 5730 5727 5725 5723 5720 5718 5716 5713 5710 5708 5705 5703 5701 5699 5697 5695 5693 5691 5689 5687 5685
5744 5743 5743 5742 5741 5742 5741 5739 5738 5737 5737 5736 5736 5737 5735 5733 5732 5730 5726 5724 5724 5726 5725 5723 5721 5719 5717 5715 5712 5710 5707 5704 5702 5700 5697 5695 5694 5692 5689 5686 5684 5682 5680
5744 5744 5744 5742 5742 5741 5740 5739 5738 5738 5737 5734 5733 5735 5736 5735 5735 5732 5728 5725 5722 5722 5720 5718 5716 5715 5713 5710 5707 5704 5701 5699 5696 5694 5692 5690 5688 5685 5683 5680 5677 5675 5673
5745 5744 5742 5741 5740 5740 5739 5738 5738 5736 5735 5734 5734 5732 5732 5733 5734 5732 5728 5723 5718 5716 5713 5711 5710 5708 5706 5704 5700 5697 5694 5691 5689 5687 5685 5682 5680 5677 5674 5672 5669 5666 5664
5744 5742 5740 5739 5739 5738 5737 5736 5735 5734 5733 5732 5732 5730 5729 5730 5729 5729 5727 5724 5717 5709 5706 5704 5703 5701 5698 5696 5693 5690 5687 5683 5681 5678 5676 5673 5671 5668 5665 5662 5659 5657 5654
5742 5740 5738 5737 5737 5736 5735 5734 5733 5731 5730 5728 5727 5726 5725 5726 5726 5725 5723 5721 5718 5710 5701 5699 5696 5694 5691 5689 5684 5682 5678 5674 5671 5668 5666 5663 5661 5658 5655 5652 5649 5646 5643
5738 5737 5736 5735 5734 5733 5732 5731 5730 5728 5726 5724 5724 5723 5721 5720 5720 5719 5718 5716 5712 5707 5698 5692 5689 5685 5682 5679 5675 5673 5669 5666 5661 5658 5655 5652 5649 5646 5643 5641 5638 5634 5631
5736 5735 5733 5732 5731 5730 5729 5728 5726 5724 5722 5720 5720 5718 5717 5716 5713 5712 5712 5710 5707 5703 5696 5687 5682 5677 5673 5670 5667 5664 5661 5657 5652 5647 5644 5641 5638 5635 5632 5629 5625 5622 5618
5732 5731 5730 5728 5727 5726 5725 5724 5722 5720 5718 5717 5715 5712 5711 5710 5707 5707 5705 5704 5701 5698 5693 5685 5677 5671 5667 5663 5658 5655 5651 5647 5643 5637 5633 5630 5626 5623 5620 5617 5613 5610 5606
5729 5727 5726 5725 5724 5723 5721 5720 5718 5715 5713 5711 5709 5707 5705 5704 5703 5701 5700 5697 5694 5690 5685 5679 5672 5665 5659 5654 5651 5647 5641 5636 5632 5628 5623 5619 5615 5612 5608 5604 5601 5597 5594
5725 5723 5722 5720 5719 5718 5717 5715 5712 5710 5707 5705 5702 5700 5698 5696 5694 5693 5694 5691 5688 5683 5678 5672 5665 5659 5652 5647 5643 5639 5633 5627 5621 5618 5614 5611 5607 5603 5598 5593 5589 5585 5582
5720 5718 5716 5715 5714 5712 5708 5706 5705 5704 5701 5698 5695 5692 5689 5687 5684 5682 5680 5679 5677 5675 5670 5665 5659 5651 5645 5640 5634 5630 5624 5621 5614 5608 5605 5601 5598 5594 5588 5583 5577 5573 5569
5714 5712 5711 5709 5707 5703 5700 5699 5697 5696 5694 5690 5687 5684 5681 5678 5676 5674 5670 5667 5664 5661 5658 5656 5649 5643 5637 5632 5627 5621 5616 5613 5607 5601 5596 5592 5587 5584 5578 5571 5566 5562 5558
5709 5706 5704 5702 5699 5695 5692 5690 5689 5688 5686 5682 5679 5676 5673 5670 5667 5665 5662 5657 5652 5648 5646 5642 5638 5632 5628 5623 5619 5615 5608 5601 5596 5591 5587 5584 5578 5574 5570 5563 5556 5551 5547
5703 5699 5696 5694 5691 5686 5683 5682 5681 5680 5676 5673 5670 5667 5664 5661 5656 5655 5652 5647 5642 5636 5632 5628 5624 5620 5615 5611 5608 5606 5601 5597 5590 5583 5578 5575 5570 5565 5561 5555 5548 5543 5538
5696 5693 5689 5686 5683 5679 5674 5673 5673 5673 5668 5664 5659 5655 5652 5649 5645 5644 5643 5639 5633 5628 5623 5618 5613 5608 5605 5600 5597 5595 5594 5590 5585 5577 5568 5564 5561 5556 5553 5547 5541 5536 5531